www.pogodaiklimat.ru

Погода и климат >> Архив погоды >> Самоа >> Faleolo Int Airport


ПОГОДА в Faleolo Int Airport

  • Прогноз погоды в Faleolo Int Airport
  • Монитор погоды в Faleolo Int Airport
  • Климат города

АРХИВ ПОГОДЫ в Faleolo Int Airport

Время (UTC), дата Ветер
(напр.,м/с)
 
Видим.   Явления Облачность Т
(С)
Тd
(С)
f
(%)
Тe
(С)
Тes
(С)
Комфортность P
(гПа)
Po
(гПа)
Тmin
(С)
Tmax
(С)
R
(мм)
R24
(мм)
S
(см)
21 18.06 0 16 км н/о +28.5 +22.2 69 1014.4 1013.3
00 19.06 0 16 км н/о +28.7 +22.1 68 1012.5 1011.4 +24.0
03 19.06 0 16 км н/о +26.3 +23.9 87 1011.5 1010.4
06 19.06 0 16 км н/о +25.1 +23.7 92 1012.3 1011.2
09 19.06 0 16 км н/о +23.0 +22.0 94 1013.7 1012.6
12 19.06 0 16 км н/о +22.5 +21.6 95 1013.2 1012.1 +29.3
15 19.06 0 16 км н/о +21.9 +20.7 93 1012.3 1011.2
18 19.06 0 16 км н/о +22.0 +21.0 94 1013.4 1012.3
21 19.06 0 16 км н/о +29.0 +23.4 72 1014.4 1013.3
00 20.06 0 16 км н/о +29.7 +24.0 72 1012.8 1011.7 +21.7
03 20.06 0 16 км н/о +29.7 +24.0 72 1012.8 1011.7 +21.7
06 20.06 0 16 км н/о +25.5 +22.6 84 1012.8 1011.7
12 20.06 0 16 км н/о +23.5 +20.8 85 1013.6 1012.5 +30.4
15 20.06 0 16 км н/о +23.3 +20.6 85 1011.8 1010.7
18 20.06 0 16 км н/о +24.0 +21.7 87 1012.1 1011.0
21 20.06 0 16 км н/о +29.2 +23.6 72 1013.2 1012.1
00 21.06 0 16 км н/о +30.7 +23.3 65 1011.6 1010.5 +21.7
03 21.06 0 15 км н/о +26.4 +23.2 83 1010.6 1009.5
06 21.06 0 16 км н/о +24.5 +23.1 92 1011.0 1009.9
09 21.06 0 16 км н/о +23.2 +22.2 94 1011.9 1010.8
12 21.06 0 16 км н/о +23.5 +22.5 94 1010.9 1009.8 +30.1
15 21.06 0 16 км н/о +24.3 +22.7 91 1010.1 1009.0
18 21.06 0 16 км н/о +24.5 +23.5 94 1011.1 1010.0 0.5
00 22.06 0 16 км н/о +28.9 +24.4 77 1010.9 1009.8 +23.1
03 22.06 0 16 км н/о +28.5 +24.2 78 1009.6 1008.5
06 22.06 0 16 км н/о +26.9 +22.9 79 1010.9 1009.8
12 22.06 0 4800 м н/о +24.3 +23.1 93 1012.5 1011.4 +30.7 4
15 22.06 0 16 км н/о +25.0 +23.2 90 1010.8 1009.7
18 22.06 0 16 км н/о +24.0 +22.8 93 1011.9 1010.8
21 22.06 0 16 км н/о +28.3 +23.8 77 1013.5 1012.4
00 23.06 0 16 км н/о +29.1 +24.2 75 1011.8 1010.7 +23.1
03 23.06 0 16 км н/о +29.1 +23.5 72 1010.2 1009.1
06 23.06 0 16 км н/о +26.4 +23.2 83 1011.5 1010.4
09 23.06 0 16 км н/о +25.7 +23.1 86 1013.0 1011.9
12 23.06 0 16 км н/о +23.9 +22.7 93 1012.4 1011.3 +29.2 4
15 23.06 0 16 км н/о +24.1 +22.9 93 1011.0 1009.9
18 23.06 0 16 км н/о +23.9 +22.5 92 1012.4 1011.3
21 23.06 0 16 км н/о +28.0 +23.1 75 1014.0 1012.9
00 24.06 0 16 км н/о +28.9 +23.7 74 1012.4 1011.3 +23.9
03 24.06 0 16 км н/о +29.1 +23.7 73 1010.7 1009.6
06 24.06 0 16 км н/о +26.0 +22.8 83 1012.2 1011.1
12 24.06 0 16 км н/о +23.8 +22.6 93 1013.3 1012.2 +29.6
18 24.06 0 16 км н/о +22.2 +21.0 93 1012.6 1011.5
21 24.06 0 16 км н/о +28.9 +24.2 76 1013.9 1012.8
00 25.06 0 16 км н/о +30.0 +24.1 71 1012.6 1011.5 +23.5
03 25.06 0 16 км н/о +29.1 +23.2 71 1011.2 1010.1
06 25.06 0 16 км н/о +25.7 +23.0 85 1012.4 1011.3
09 25.06 0 16 км н/о +23.6 +21.5 88 1013.5 1012.4
12 25.06 0 16 км н/о +23.3 +21.9 92 1013.2 1012.1 +29.7
15 25.06 0 16 км н/о +22.1 +20.5 91 1011.4 1010.3
18 25.06 0 16 км н/о +21.6 +20.4 93 1012.5 1011.4

 

Местоположение метеостанции Faleolo Int Airport (Самоа): широта -13.83 долгота -172.02 высота над уровнем моря 10 м.

В архиве по умолчанию представлена погода в Faleolo Int Airport за последнюю неделю. Архивные данные за месяц целиком и за предыдущие месяцы, начиная с января 2011 года, Вы можете получить, выбрав интересующий диапазон дат из раскрывающегося списка и нажав кнопку "Ввод!".


*Определитесь, кто Вы:
робот инопланетянин человек

Внимание! Время в таблицах - всемирное. Для получения местного времени необходимо прибавить поправку, которая в Faleolo Int Airport равна 13 ч.

Смотрите также архив погоды в соседних городах и на ближайших метеорологических станциях:

Погода в Faleolo Int Airport (Американское Самоа) (3 км)
Погода в Faleolo Int East (Самоа) (3 км)
Погода в Manono (Самоа) (10 км)
Погода в Maota Int Airport (Самоа) (28 км)
Погода в Apia (Американское Самоа) (35 км)
Погода в Togitogiga (Самоа) (35 км)
Погода в Le Mafa (Самоа) (48 км)
Погода в Lufi-Lufi (Самоа) (50 км)
Погода в Le Piu Tai (Самоа) (57 км)
Погода в Mount Talu (Самоа) (81 км)

Пояснения к столбцам:

Ветер - указаны скорость ветра в м/с - средняя за 10 мин, порывы в срок и между сроками (в фигурных скобках) и направление, откуда дует ветер: С - северный, СВ - северо-восточный, В - восточный, ЮВ - юго-восточный, Ю - южный, ЮЗ - юго-западный, З - западный, СЗ - северо-западный.
Видимость - горизонтальная дальность видимости в метрах или километрах. При видимости от 1 до 10 км при отсутствии осадков обычно наблюдается дымка, при ухудшении видимости до 1 км и менее - туман. В сухую погоду видимость может ухудшаться дымом, пылью или мглою.
Явления - указаны атмосферные явления, наблюдавшиеся в срок или в последний час перед сроком; фигурными скобками обозначены явления, наблюдавшиеся между сроками (за 1-3 часа до срока); квадратными скобками обозначены град или гололедные отложения с указанием их диаметра в мм.
Облачность - указаны через наклонную черту общая и нижняя облачность в баллах и высота нижней границы облаков в метрах; квадратными скобками обозначены формы облаков: Ci - перистые, Cs - перисто-слоистые, Cc - перисто-кучевые, Ac - высококучевые, As - высокослоистые, Sc - слоисто-кучевые, Ns - слоисто-дождевые, Cu - кучевые, Cb - кучево-дождевые. Подробнее классификацию облаков см. в Атласе облаков (PDF).
T - Температура воздуха - температура, измеренная на высоте 2 м над землей.
Td - Температура точки росы - температура, при понижении до которой содержащийся в воздухе водяной пар достигнет насыщения.
f - Относительная влажность воздуха - влажноcть воздуха, измеренная на высоте 2 м над землей.
Te - Эффективная температура - температура, которую ощущает одетый по сезону человек в тени. Характеристика душности погоды. При расчете учитывается влияние влажности воздуха и скорости ветра на теплоощущения человека.
Tes - Эффективная температура на солнце - температура, которую ощущает человек, с поправкой на солнечный нагрев. Характеристика знойности погоды. Зависит от высоты солнца над горизонтом, облачности и скорости ветра. Ночью, в пасмурную погоду, а также при ветре 12 м/с и более поправка равна нулю.
P - Атмосферное давление - приведенное к уровню моря атмосферное давление.
Po - Атмосферное давление - измеренное на уровне метеостанции атмосферное давление.
Tmin - Минимальная температура - минимум температуры воздуха на высоте 2 м над землей.
Tmax - Максимальная температура - максимум температуры воздуха на высоте 2 м над землей.
R - Количество осадков - Количество выпавших осадков за период времени, мм. При наведении курсора мыши на число - период времени, за который выпало указанное количество осадков.
R24 - Количество осадков - Количество выпавших осадков за 24 часа, мм.
S - Снежный покров - Высота снежного покрова, см. При наведении курсора мыши на число - состояние снежного покрова и степень покрытия местности в баллах.